Location: Unspecified
(0.0000°N, 0.0000°E)
Time: 00:54:18
(UTC+00:00)

deb Midas V - Pass Details

Date: 19 April 2026
Orbit: 2771 x 3389 km, 86.6° (Epoch: 17 May)

Event Time Altitude Azimuth Distance (km) Brightness Sun altitude
Rises 04:59:44 0° 159° (SSE) 6,610 ? -14.6°
Reaches altitude 10° 05:04:00 10° 151° (SSE) 5,628 ? -13.5°
Maximum altitude 05:17:25 39° 86° (E) 3,920 ? -10.2°
Drops below altitude 10° 05:31:38 10° 24° (NNE) 6,038 ? -6.8°
Sets 05:36:16 0° 17° (NNE) 7,137 ? -5.6°
